Regional Weather Roundup
Issued by NWS Cleveland, OH

Home | Current Version | Previous Version | Graphics & Text | Print | Product List | Glossary On
Versions: 1 2 3 4 5 6 7 8 9 10 11 12 13 14 15 16 17 18 19 20 21 22 23 24 25 26 27 28 29 30 31 32 33 34 35 36 37 38 39 40 41 42 43 44 45 46 47 48 49 50
960
ASUS41 KCLE 190810
RWRCLE
OHIO REGIONAL WEATHER ROUNDUP
NATIONAL WEATHER SERVICE WILMINGTON, OH
300 AM EST SUN FEB 19 2017

NOTE: "FAIR" INDICATES FEW OR NO CLOUDS BELOW 12,000 FEET WITH NO
SIGNIFICANT WEATHER AND/OR OBSTRUCTIONS TO VISIBILITY.

OHZ001>008-015>018-024>027-034-035-043-044-190900-
   NORTHWEST OHIO

CITY           SKY/WX    TMP DP  RH WIND       PRES   REMARKS
DEFIANCE       FAIR      42  38  85 SW6       29.87R
FINDLAY        FAIR      47  41  80 W10       29.86R
TOLEDO EXPRESS FAIR      41  39  93 SW6       29.85R
TOLEDO EXEC    FAIR      42  39  89 SW9       29.86R
LIMA           FAIR      45  43  93 SW9       29.89R
$$

OHZ009>014-019>023-028>033-038-089-190900-
   NORTHEAST OHIO

CITY           SKY/WX    TMP DP  RH WIND       PRES   REMARKS
CLE-HOPKINS    FAIR      49  39  68 SW7       29.87R
CLE-LAKEFRONT  FAIR      50  40  68 SW13      29.83R
CUY CO. ARPT   NOT AVBL
LORAIN-ELYRIA  FAIR      44  38  79 W9        29.85R
ASHTABULA      FAIR      44  37  76 SW5       29.82R
AKRON-CANTON   FAIR      45  39  79 SW9       29.86R
WOOSTER        FAIR      44  40  85 SW8       29.87R
MANSFIELD      FAIR      47  42  83 SW13      29.87R
YOUNGSTOWN     FAIR      46  39  76 SW12      29.84R
$$

OHZ042-051>053-060>062-070>072-077>081-190900-
  SOUTHWEST OHIO

CITY           SKY/WX    TMP DP  RH WIND       PRES   REMARKS
CINC-COVINGTON FAIR      49  45  86 SW6       29.94R
CINC-LUNKEN    FAIR      48  45  89 S6        29.95S
HAMILTON       FAIR      40  39  97 CALM      29.95R FOG
DAYTON         FAIR      46  43  89 W14       29.92R
WRIGHT-PAT AFB CLEAR     46  46 100 W10       29.91R
DAYTON GENERAL FAIR      45  43  93 SW6       29.91R
WILMINGTON     FAIR      47  44  90 SW9       29.92R
$$

OHZ036-037-039>041-045>050-054>059-063>069-073>076-082>088-190900-
  CENTRAL AND SOUTHEAST OHIO

CITY           SKY/WX    TMP DP  RH WIND       PRES   REMARKS
COLUMBUS       FAIR      45  42  89 S3        29.91R
OSU AIRPORT    FAIR      45  44  97 SW8       29.90R FOG
BOLTON FIELD   FAIR      42  42  98 SW5       29.91R
RICKENBACK AFB MOCLDY    45  44  99 SW7       29.92R
NEWARK         MOCLDY    45  42  89 SW3       29.90R
MARION         FAIR      42  40  92 SW8       29.89R
LANCASTER      CLOUDY    50  46  86 SW5       29.92R
ZANESVILLE     FAIR      48  42  80 SW6       29.90R
NEW PHILLY     FAIR      48  43  82 CALM      29.89R
$$




USA.gov is the U.S. government's official web portal to all federal, state and local government web resources and services.